User: anonymous   Login
Location: Riverside Cemetery
(38.3047°N, 99.7773°W)
Time: 02:23:27
(UTC+00:00)
Language:

Cosmos 372 Rocket - Orbit

View from above orbital plane
View from above orbital plane
View from above satellite
View from above satellite

Ground track
Ground track

The orbit data is extracted from the following two-line orbital elements,

1  4589U 70086B   20329.53427748  .00000154  00000-0  55434-4 0  9998
2  4589  74.0582 154.2267 0019931  50.8991 309.3933 14.41608682628327
Epoch (UTC): 24 November 2020 12:49:21
Eccentricity: 0.0019931
inclination: 74.0582°
perigee height: 739 km
apogee height: 767 km
right ascension of ascending node: 154.2267°
argument of perigee: 50.8991°
revolutions per day: 14.41608682
mean anomaly at epoch: 309.3933°
orbit number at epoch: 62832

The dashed part of the orbit path shows where the satellite is in the earth's shadow,  

DLR